Date,TemperatureHighF,TemperatureAvgF,TemperatureLowF,DewpointHighF,DewpointAvgF,DewpointLowF,HumidityHigh,HumidityAvg,HumidityLow,PressureMaxIn,PressureMinIn,WindSpeedMaxMPH,WindSpeedAvgMPH,GustSpeedMaxMPH,PrecipitationSumIn
2013-1-1,45,38,34,44,37,32,97,94,92,30.67,30.49,1,-38,1,0.00
2013-1-2,48,36,32,46,34,30,96,93,87,30.54,30.35,4,-30,4,0.00
2013-1-3,46,35,30,43,33,28,95,91,80,30.51,30.25,6,-26,6,0.28
2013-1-4,47,42,34,46,41,33,96,95,93,30.51,30.31,8,-66,8,0.00
2013-1-5,46,43,41,44,42,39,96,95,94,30.36,30.25,10,0,10,0.06
2013-1-6,46,43,42,43,41,40,95,92,89,30.32,30.11,13,-18,13,0.00
2013-1-7,52,47,43,50,45,41,95,93,90,30.31,29.92,12,-216,12,0.00
2013-1-8,53,46,41,51,43,-100,96,94,91,30.31,29.71,32,-92,32,0.55
2013-1-9,50,43,37,49,42,36,96,95,95,30.10,29.82,16,-28,16,0.37
2013-1-10,50,38,35,49,36,34,96,95,94,30.29,29.86,32,2,32,0.02
2013-1-11,45,35,31,37,31,28,95,85,68,30.49,30.28,6,-14,6,0.00
2013-1-12,35,31,30,34,29,28,95,92,86,30.53,30.30,0,0,0,0.00
2013-1-13,35,32,30,34,30,28,95,92,86,30.66,30.30,0,0,0,0.00
2013-1-14,42,34,32,37,31,29,92,89,82,30.73,30.63,3,0,3,0.00
2013-1-15,39,35,32,37,33,30,94,93,91,30.89,30.74,0,0,0,0.00
2013-1-16,45,34,32,41,32,30,95,93,85,30.86,30.70,2,0,2,0.00
2013-1-17,37,34,32,35,32,30,95,94,93,30.81,30.46,3,0,3,0.00
2013-1-18,39,36,34,38,35,33,95,95,95,30.49,30.44,0,0,0,0.00
2013-1-19,43,38,36,40,37,34,95,94,91,30.54,30.48,0,0,0,0.00
2013-1-20,54,41,38,49,39,36,95,92,80,30.57,30.42,0,-4,0,0.00
2013-1-21,40,39,38,38,38,37,95,94,94,30.49,30.34,0,-5,0,0.00
2013-1-22,41,36,34,39,34,32,95,93,90,30.49,30.07,0,0,0,0.00
2013-1-23,45,41,37,44,40,35,96,95,94,30.49,30.00,8,0,8,0.31
2013-1-24,45,42,40,44,41,39,96,95,91,30.37,30.18,10,0,10,0.10
2013-1-25,57,46,39,52,43,37,95,90,76,30.49,30.05,11,-40,11,0.00
2013-1-26,45,42,40,43,40,38,93,91,88,30.20,30.03,9,2,9,0.04
2013-1-27,44,41,37,41,38,35,94,92,89,30.21,30.13,11,0,11,0.00
2013-1-28,42,40,37,40,38,35,96,95,92,30.25,30.16,2,0,2,0.12
2013-1-29,48,43,40,47,42,39,97,96,95,30.49,30.24,0,0,0,0.14
2013-1-30,50,46,44,49,44,42,97,96,94,30.54,30.47,0,-10,0,0.02
2013-1-31,57,48,45,52,46,44,97,93,82,30.56,30.41,8,-26,8,0.04
2013-2-1,52,46,42,50,44,40,96,93,88,30.58,30.50,0,-8,0,0.00
2013-2-2,48,44,41,46,41,-100,96,93,89,30.56,30.41,0,0,0,0.00
2013-2-3,48,45,42,46,43,40,95,93,92,30.49,30.36,0,-4,0,0.00
2013-2-4,52,46,42,48,44,41,95,91,85,30.49,30.01,13,0,13,0.02
2013-2-5,52,46,44,49,44,42,94,91,83,30.06,29.96,14,3,14,0.33
2013-2-6,48,45,43,45,43,41,94,91,84,30.18,29.93,14,-2,14,0.22
2013-2-7,56,44,36,50,40,34,95,87,74,30.36,29.93,13,2,13,0.06
2013-2-8,49,40,34,45,37,-100,96,92,85,30.48,30.36,0,0,0,0.02
2013-2-9,47,43,40,44,41,38,94,92,84,30.50,29.99,0,0,0,0.02
2013-2-10,44,42,41,42,41,40,94,94,93,30.55,30.48,0,0,0,0.00
2013-2-11,48,44,40,45,41,-100,95,92,88,30.52,30.48,0,0,0,0.02
2013-2-12,52,46,42,49,44,40,94,91,84,30.56,29.99,12,1,12,0.00
2013-2-13,51,47,44,48,45,42,94,91,88,30.66,30.47,7,-4,8,0.04
2013-2-14,47,45,44,45,44,42,94,93,93,30.73,30.65,0,-8,0,0.04
2013-2-15,65,49,40,56,46,38,96,88,69,30.73,30.34,0,-16,0,0.00
2013-2-16,63,46,40,56,43,38,96,88,70,30.36,30.26,0,-8,0,0.00
2013-2-17,51,43,38,46,40,36,92,88,80,30.41,30.30,0,0,0,0.02
2013-2-18,49,46,42,46,42,39,89,88,86,30.28,30.10,0,0,0,0.00
2013-2-19,59,47,37,50,42,34,91,82,66,30.18,29.99,0,0,0,0.00
2013-2-20,56,42,37,44,39,35,93,89,66,30.21,30.00,12,1,12,0.10
2013-2-21,49,43,39,43,40,37,93,89,77,30.22,30.12,16,2,16,0.00
2013-2-22,51,44,40,48,40,36,94,87,74,30.18,29.77,17,5,17,0.20
2013-2-23,55,43,34,49,39,32,94,85,71,30.53,30.05,9,0,9,0.00
2013-2-24,47,43,40,42,40,36,93,87,83,30.53,30.10,17,3,17,0.06
2013-2-25,60,45,36,46,39,32,94,80,55,30.47,30.03,11,0,11,0.08
2013-2-26,48,41,34,41,37,31,92,86,75,30.52,30.34,13,2,13,0.04
2013-2-27,51,44,40,46,41,38,92,89,78,30.46,30.35,8,1,8,0.04
2013-2-28,55,46,43,53,44,40,95,93,88,30.44,30.33,15,2,15,0.22
2013-3-1,61,55,51,54,50,48,92,83,76,30.48,30.39,18,5,18,0.02
2013-3-2,57,52,43,51,47,39,88,83,74,30.41,30.19,15,3,15,0.00
2013-3-3,62,47,38,51,40,34,93,79,60,30.47,30.21,4,0,4,1.53
2013-3-4,63,46,35,50,39,-100,93,78,52,30.41,30.10,0,0,0,0.00
2013-3-5,51,44,39,45,40,-100,89,85,76,30.36,29.89,6,0,6,0.20
2013-3-6,46,43,42,43,40,39,93,91,88,30.03,29.74,4,0,4,0.22
2013-3-7,61,46,42,54,42,39,94,87,72,30.26,29.96,4,0,4,0.02
2013-3-8,64,46,37,54,41,35,95,85,63,30.41,30.24,2,0,2,0.02
2013-3-9,66,47,37,53,41,34,93,83,59,30.66,30.41,2,0,2,0.00
2013-3-10,52,45,38,47,41,36,92,88,81,30.67,30.59,2,0,2,0.00
2013-3-11,52,47,44,47,43,-100,92,88,82,30.62,30.29,8,0,8,0.02
2013-3-12,58,51,47,50,48,45,92,88,76,30.29,30.18,22,6,22,0.00
2013-3-13,58,52,50,52,48,46,91,86,79,30.30,30.20,12,4,12,0.00
2013-3-14,61,52,49,50,47,45,90,83,65,30.29,30.16,29,3,29,0.00
2013-3-15,61,53,48,53,48,45,91,84,71,30.35,30.27,14,3,14,0.00
2013-3-16,60,50,38,50,43,34,90,78,61,30.29,29.98,12,2,12,0.00
2013-3-17,64,45,35,50,38,32,92,78,55,30.34,30.08,4,0,4,0.00
2013-3-18,62,47,40,49,40,34,87,74,56,30.41,30.26,15,1,15,0.00
2013-3-19,58,44,37,48,39,34,91,84,58,30.41,29.71,8,1,8,0.59
2013-3-20,56,47,40,49,43,34,95,86,67,30.16,29.47,23,-4,23,2.02
2013-3-21,55,42,38,47,36,-100,89,83,70,30.38,30.16,10,1,10,0.06
2013-3-22,57,41,36,47,36,-100,91,82,64,30.55,30.37,4,-4,4,0.00
2013-3-23,66,46,36,49,38,33,90,76,47,30.57,30.47,5,0,5,0.00
2013-3-24,57,46,35,46,38,32,91,75,56,30.48,30.28,4,0,4,0.00
2013-3-25,69,49,37,51,39,34,91,71,42,30.29,30.08,2,-4,2,0.00
2013-3-26,61,50,44,48,42,36,82,74,63,30.39,30.11,0,0,0,0.00
2013-3-27,60,51,45,51,45,40,87,79,69,30.39,30.10,0,0,0,0.00
2013-3-28,73,54,44,60,48,-100,93,80,57,30.31,30.13,5,0,5,0.10
2013-3-29,75,55,45,59,47,41,93,77,53,30.42,30.13,2,0,2,0.00
2013-3-30,75,56,44,59,47,40,89,72,51,30.43,30.22,2,0,2,0.00
2013-3-31,77,57,45,58,46,40,86,69,46,30.36,30.05,6,0,6,0.00
2013-4-1,65,53,46,54,47,42,88,79,64,30.30,30.12,8,0,8,0.00
2013-4-2,61,52,46,51,46,42,86,80,63,30.36,30.30,2,0,2,0.00
2013-4-3,72,55,46,58,47,-100,89,78,55,30.37,30.12,1,0,1,0.00
2013-4-4,61,52,48,52,48,44,92,86,63,30.36,29.77,21,2,21,0.49
2013-4-5,59,52,49,52,49,46,92,87,76,30.00,29.78,32,4,32,0.02
2013-4-6,54,49,47,49,46,42,93,88,76,30.01,29.80,14,2,14,0.25
2013-4-7,52,47,42,49,43,-100,93,88,83,30.03,29.70,5,0,5,0.45
2013-4-8,64,51,43,56,47,40,94,84,72,30.43,29.82,3,0,3,0.00
2013-4-9,60,50,43,50,44,40,91,80,63,30.49,30.32,12,-2,12,0.00
2013-4-10,72,56,49,62,48,-100,93,78,1,30.40,30.05,9,1,9,0.14
2013-4-11,55,50,45,50,44,-100,89,84,74,30.46,30.13,0,0,0,0.10
2013-4-12,48,45,42,44,40,-100,90,86,77,30.37,29.81,10,1,10,0.00
2013-4-13,61,46,38,51,41,35,90,83,67,30.15,29.89,6,0,6,0.08
2013-4-14,64,49,39,57,43,36,94,80,61,30.18,30.05,6,0,6,0.00
2013-4-15,71,52,38,55,43,35,92,73,49,30.34,30.05,3,0,5,0.00
2013-4-16,74,52,38,55,40,33,91,68,39,30.56,30.34,2,0,2,0.00
2013-4-17,68,52,40,54,42,33,81,70,54,30.61,30.53,2,0,2,0.00
2013-4-18,54,50,44,47,43,-100,86,78,75,30.62,30.32,10,1,10,0.00
2013-4-19,60,53,51,56,50,47,90,87,84,30.34,30.21,11,1,11,0.22
2013-4-20,61,52,48,56,48,-100,92,87,80,30.43,30.34,2,0,2,0.06
2013-4-21,54,50,44,51,46,40,92,88,82,30.52,30.37,5,0,5,0.04
2013-4-22,75,54,39,56,40,29,90,65,37,30.69,30.37,4,0,4,0.00
2013-4-23,77,53,38,54,40,30,86,63,35,30.60,30.38,2,0,2,0.00
2013-4-24,80,56,41,57,43,37,87,66,41,30.50,30.22,0,0,0,0.00
2013-4-25,82,64,43,58,49,38,87,62,41,30.32,30.18,0,0,0,0.00
2013-4-26,82,57,67,56,52,41,86,54,41,30.38,30.22,0,0,0,0.00
2013-4-27,67,64,50,54,52,44,82,66,62,30.34,30.31,1,0,4,0.00
2013-4-28,67,63,50,54,52,44,86,67,62,30.35,30.09,10,0,14,0.00
2013-4-29,67,58,45,54,46,36,86,67,49,30.34,30.10,1,0,1,0.00
2013-4-30,65,49,38,52,40,34,87,72,54,30.62,30.31,2,0,2,0.00
2013-5-1,76,53,38,54,40,34,90,66,37,30.75,30.61,1,0,1,0.00
2013-5-2,76,56,42,57,43,34,83,64,43,30.72,30.50,7,0,7,0.00
2013-5-3,84,63,53,58,47,40,72,57,38,30.54,30.34,9,-4,9,0.00
2013-5-4,86,66,53,59,48,42,69,54,33,30.38,30.13,7,0,7,0.00
2013-5-5,89,67,51,62,50,39,79,57,37,30.51,29.89,1,-7,1,0.00
2013-5-6,93,67,51,63,51,-100,82,61,36,30.01,29.87,1,0,1,0.00
2013-5-7,86,64,53,65,53,45,83,69,38,30.14,29.90,4,-4,4,0.00
2013-5-8,74,59,52,62,52,47,84,76,61,30.30,30.14,1,0,1,0.00
2013-5-9,79,59,49,63,51,44,87,76,55,30.39,30.19,1,-4,1,0.00
2013-5-10,85,63,48,65,53,44,90,71,50,30.37,30.19,0,0,0,0.00
2013-5-11,84,62,52,64,52,46,84,73,51,30.33,30.12,0,0,0,0.00
2013-5-12,67,60,52,59,54,46,89,80,74,30.32,30.14,6,0,6,0.02
2013-5-13,69,59,50,59,52,44,87,76,59,30.33,30.06,12,3,12,0.00
2013-5-14,76,58,48,58,47,-100,84,69,50,30.39,30.26,1,-4,1,0.00
2013-5-15,73,58,48,58,50,42,85,75,56,30.32,30.15,4,0,4,0.00
2013-5-16,83,62,54,64,54,50,87,78,48,30.16,29.99,3,0,3,0.00
2013-5-17,71,60,54,56,51,49,86,74,56,30.19,30.08,6,1,6,0.02
2013-5-18,66,58,52,56,50,46,81,75,67,30.43,30.19,3,0,3,0.00
2013-5-19,74,60,52,60,52,46,88,76,59,30.55,30.23,3,-4,3,0.00
2013-5-20,82,63,50,63,52,46,88,70,49,30.46,30.05,3,0,3,0.00
2013-5-21,58,52,48,54,47,44,89,84,74,30.23,29.93,0,0,0,0.33
2013-5-22,61,52,48,56,48,45,92,87,80,30.23,30.00,0,0,0,0.06
2013-5-23,64,51,46,55,46,-100,91,84,71,30.23,30.08,4,0,4,0.02
2013-5-24,72,58,48,60,50,45,91,77,57,30.23,30.13,6,0,6,0.02
2013-5-25,72,58,51,58,50,46,85,75,56,30.23,30.12,7,0,7,0.06
2013-5-26,72,58,50,63,52,46,91,82,66,30.23,30.08,6,0,6,0.12
2013-5-27,60,55,52,56,51,46,90,86,79,30.23,29.85,8,0,8,0.20
2013-5-28,72,59,53,59,51,46,88,76,57,30.01,29.90,9,2,9,0.00
2013-5-29,63,55,51,58,51,46,90,85,77,30.23,29.85,6,0,6,0.20
2013-5-30,73,57,49,59,50,46,90,79,58,30.39,30.11,9,1,9,0.02
2013-5-31,71,53,50,57,48,45,88,76,57,30.50,30.15,0,0,0,0.00
2013-6-1,69,43,40,59,48,39,96,78,52,30.49,30.15,2,0,2,0.00
2013-6-2,61,54,51,58,49,47,88,79,52,30.23,30.15,4,0,4,0.00
2013-6-3,60,52,51,51,48,47,88,85,73,30.26,30.15,2,0,2,0.00
2013-6-4,87,65,49,65,54,45,91,69,43,30.30,30.16,2,0,2,0.00
2013-6-5,86,67,52,66,55,46,84,68,49,30.25,30.16,2,0,2,0.00
2013-6-6,87,63,51,65,52,-100,90,71,43,30.21,30.13,2,0,2,0.00
2013-6-7,68,60,54,60,53,47,83,76,72,30.30,30.16,1,0,1,0.00
2013-6-8,65,58,54,56,51,48,81,76,72,30.35,30.17,0,0,0,0.00
2013-6-9,63,58,53,54,49,47,80,74,72,30.26,30.17,2,0,2,0.00
2013-6-10,84,64,50,62,52,45,85,68,46,30.19,30.00,1,0,1,0.00
2013-6-11,77,62,52,60,51,44,81,67,52,30.24,30.07,4,0,4,0.00
2013-6-12,75,59,49,61,50,44,85,74,57,30.30,30.23,4,-4,4,0.00
2013-6-13,79,62,51,62,53,45,87,73,53,30.36,30.26,1,0,1,0.02
2013-6-14,71,58,54,60,52,47,86,79,69,30.39,30.30,0,0,0,0.00
2013-6-22,69,69,69,62,62,61,79,78,78,30.31,30.31,0,0,0,0.00
2013-6-23,69,69,68,62,62,62,80,80,79,30.31,30.31,0,0,0,0.00
2013-6-24,68,68,68,62,62,62,81,81,80,30.31,30.31,0,0,0,0.00
2013-6-25,68,68,68,62,62,62,83,82,81,30.31,30.31,0,0,0,0.00
2013-6-26,68,68,68,63,62,62,84,83,83,30.31,30.31,0,0,0,0.00
2013-6-27,68,67,64,63,63,60,89,85,84,30.32,30.30,0,0,0,0.00
2013-6-28,89,71,58,72,63,55,93,76,55,30.33,30.16,2,0,2,0.00
2013-6-29,89,71,61,71,62,55,91,73,51,30.24,30.12,1,0,1,0.00
2013-6-30,96,73,57,72,61,53,91,69,45,30.16,29.97,1,0,1,0.00
2013-7-1,91,72,60,70,61,55,86,69,48,30.16,30.04,1,0,1,0.00
2013-7-2,88,70,58,68,59,53,88,69,47,30.25,30.16,1,0,1,0.00
2013-7-3,89,72,60,66,58,52,81,64,44,30.30,30.18,1,0,1,0.00
2013-7-4,85,65,57,66,57,51,84,74,49,30.27,30.16,0,0,0,0.00
2013-7-5,87,68,54,66,58,50,89,72,48,30.18,30.07,4,0,4,0.00
2013-7-6,90,70,56,67,58,51,90,68,43,30.12,29.99,2,0,2,0.00
2013-7-7,89,67,55,68,58,51,89,75,46,30.09,30.01,1,0,1,0.00
2013-7-8,87,84,81,66,64,62,56,53,50,30.03,30.01,0,0,1,0.00
2013-7-9,80,77,74,62,61,59,61,59,56,30.05,30.03,0,0,1,0.00
2013-7-10,74,70,58,59,57,50,76,65,61,30.12,30.05,0,0,0,0.00
2013-7-11,75,63,56,60,54,49,79,71,57,30.23,30.12,0,0,0,0.00
2013-7-12,74,62,53,62,53,47,84,73,56,30.25,30.16,0,0,0,0.00
2013-7-13,89,66,50,63,53,46,91,67,40,30.37,30.23,0,0,0,0.00
2013-7-14,90,67,51,64,54,46,90,65,39,30.29,30.12,0,0,0,0.00
2013-7-15,94,71,54,62,52,47,85,56,29,30.22,30.00,4,0,4,0.00
2013-7-16,92,69,56,62,54,48,76,60,35,30.22,29.93,3,0,3,0.00
2013-7-17,68,65,62,56,55,54,78,71,62,30.12,29.99,2,0,2,0.00
2013-7-18,64,63,63,55,55,55,75,74,73,30.12,30.12,0,0,0,0.00
2013-7-19,65,64,64,55,55,55,73,72,70,30.12,30.12,0,0,0,0.00
2013-7-20,65,65,65,55,54,54,70,69,68,30.12,30.12,0,0,0,0.00
2013-7-21,66,66,65,54,54,54,68,67,66,30.12,30.12,0,0,0,0.00
2013-7-22,67,67,66,54,54,54,66,65,63,30.12,30.12,0,0,0,0.00
2013-7-23,68,67,60,54,54,51,73,63,60,30.16,30.12,0,0,0,0.00
2013-7-24,92,71,54,65,56,49,88,61,38,30.21,30.11,0,0,0,0.00
2013-7-25,92,64,52,64,53,46,88,69,38,30.26,30.14,0,0,0,0.00
2013-7-26,85,61,53,65,52,48,88,73,48,30.31,30.19,0,0,0,0.00
2013-7-27,68,54,53,52,48,47,85,82,57,30.30,30.21,0,0,0,0.00
2013-7-28,78,61,53,61,53,48,85,76,55,30.27,30.07,0,0,0,0.00
2013-7-29,89,68,56,65,56,50,86,68,42,30.15,30.07,0,0,0,0.00
2013-7-30,75,58,53,60,51,48,86,79,58,30.27,30.11,0,0,0,0.00
2013-7-31,80,65,53,66,57,48,85,78,60,30.27,30.11,0,0,0,0.00
2013-8-1,79,61,53,64,54,48,88,80,59,30.27,30.15,0,0,0,0.00
2013-8-2,64,61,53,60,56,48,89,85,79,30.27,30.17,0,0,0,0.02
2013-8-3,83,64,53,68,56,-100,92,79,1,30.29,30.18,0,0,0,0.00
2013-8-4,89,68,56,67,58,51,88,71,46,30.22,30.07,0,0,0,0.00
2013-8-5,91,68,55,68,57,51,90,69,44,30.16,30.05,1,0,1,0.00
2013-8-6,90,67,53,66,55,48,86,67,42,30.27,30.05,1,0,1,0.00
2013-8-7,92,66,53,68,55,48,87,70,42,30.27,30.07,0,0,0,0.00
2013-8-8,93,68,53,69,57,48,86,70,44,30.27,30.06,0,0,0,0.00
2013-8-9,86,70,56,67,58,51,87,68,49,30.11,29.95,0,0,0,0.00
2013-8-10,85,68,58,70,60,52,89,77,58,30.15,30.06,0,0,0,0.00
2013-8-11,81,66,60,67,58,54,87,77,58,30.21,30.11,0,0,0,0.00
2013-8-12,90,68,58,68,58,52,85,71,44,30.22,30.12,0,0,0,0.00
2013-8-13,90,68,56,68,58,51,88,71,46,30.25,30.06,0,0,0,0.00
2013-8-14,85,64,56,66,58,51,89,80,46,30.22,30.00,0,0,0,0.12
2013-8-15,68,62,57,64,58,52,91,86,82,30.22,30.05,0,0,0,0.06
2013-8-16,63,58,57,60,54,52,91,84,82,30.22,30.11,0,0,0,0.00
2013-8-17,69,60,57,59,54,52,87,81,70,30.22,30.13,0,0,0,0.00
2013-8-18,88,68,57,69,60,52,85,75,51,30.26,30.21,0,0,0,0.00
2013-8-19,72,68,65,60,58,56,73,70,66,30.22,30.21,0,0,0,0.00
2013-8-20,65,62,59,56,54,52,80,76,73,30.22,30.22,0,0,0,0.00
2013-8-21,92,67,53,65,55,49,87,67,40,30.23,30.05,0,0,0,0.00
2013-8-22,63,63,62,52,51,50,65,64,64,30.08,30.06,0,0,0,0.00
2013-8-23,65,64,63,53,52,52,65,65,65,30.06,30.03,0,0,0,0.00
2013-8-24,67,65,59,55,54,52,79,66,65,30.05,30.00,0,0,0,0.00
2013-8-25,74,64,54,63,56,50,89,75,64,30.09,30.00,0,0,0,0.00
2013-8-26,81,64,55,64,56,50,88,76,51,30.10,29.97,5,0,5,0.02
2013-8-27,88,68,60,69,60,55,91,76,50,30.10,29.92,0,0,0,0.10
2013-8-28,84,69,60,70,61,56,91,77,56,30.07,29.96,4,0,4,0.08
2013-8-29,73,65,60,70,61,56,93,88,83,30.11,29.98,10,1,10,0.51
2013-8-30,82,67,59,69,60,54,91,78,59,30.26,30.07,6,0,6,0.00
2013-8-31,84,65,55,67,57,52,92,77,52,30.22,29.97,0,0,0,0.00
2013-9-1,84,66,57,68,58,53,90,75,58,30.03,29.92,2,0,2,0.00
2013-9-2,82,67,57,67,58,53,87,74,58,30.08,29.98,2,0,2,0.00
2013-9-3,74,62,57,69,57,53,92,85,77,30.16,29.99,0,0,0,0.35
2013-9-4,74,64,57,67,59,53,92,85,77,30.20,29.99,0,0,0,0.06
2013-9-5,67,61,59,64,58,56,93,90,85,30.19,30.06,0,0,0,0.10
2013-9-6,66,62,59,62,59,57,94,92,87,30.22,30.07,0,0,0,0.67
2013-9-7,75,64,59,68,59,56,92,86,76,30.23,30.14,0,0,0,0.00
2013-9-8,85,66,56,70,60,53,93,81,57,30.26,30.15,0,0,0,0.00
2013-9-9,74,56,56,63,57,53,91,84,65,30.20,30.10,0,0,0,0.00
2013-9-10,73,57,55,63,56,51,91,83,65,30.17,30.00,0,0,0,0.00
2013-9-11,90,68,56,70,59,53,91,74,49,30.17,29.99,0,0,0,0.00
2013-9-12,84,66,57,69,58,53,91,77,57,30.17,30.02,0,0,0,0.00
2013-9-13,68,62,58,63,58,52,89,85,80,30.12,30.00,0,0,0,0.00
2013-9-14,77,63,59,64,58,54,91,84,66,30.17,29.87,0,0,0,0.00
2013-9-15,62,59,56,59,56,53,92,90,85,30.17,29.84,0,0,0,0.04
2013-9-16,66,61,58,63,58,56,94,92,88,30.17,29.92,0,0,0,0.39
2013-9-17,66,60,55,62,57,52,95,90,84,30.17,30.01,0,-4,0,0.02
2013-9-18,79,60,54,66,55,51,94,84,59,30.23,30.09,0,0,0,0.00
2013-9-19,73,56,50,58,50,-100,92,82,58,30.19,29.89,0,0,0,0.00
2013-9-20,76,62,53,63,55,49,88,79,62,30.17,29.72,3,0,3,0.00
2013-9-21,76,60,54,64,54,50,89,82,63,30.17,29.78,2,0,2,0.00
2013-9-22,63,58,54,61,54,50,94,88,84,30.17,29.68,8,1,8,0.55
2013-9-23,70,57,54,61,53,50,91,87,72,30.17,29.85,6,1,6,0.04
2013-9-24,66,54,48,60,50,45,95,89,77,30.17,29.99,1,0,1,0.18
2013-9-25,69,55,49,59,50,47,93,84,69,30.19,30.02,0,0,0,0.08
2013-9-26,66,52,46,59,49,44,91,89,79,30.24,30.10,0,0,0,0.00
2013-9-27,58,55,50,53,51,48,91,88,84,30.23,29.98,7,0,7,0.00
2013-9-28,59,56,52,58,53,50,95,91,88,30.17,29.44,9,1,9,0.67
2013-9-29,54,53,51,52,51,48,95,91,88,30.17,29.28,17,1,17,0.43
2013-9-30,65,54,48,60,50,45,96,88,76,30.17,29.30,9,1,10,0.06
2013-10-1,67,53,48,57,48,45,93,85,61,30.26,30.04,7,1,7,0.04
2013-10-2,57,51,47,53,48,44,91,89,83,30.36,30.06,4,0,4,0.06
2013-10-3,66,50,46,58,47,43,92,89,73,30.62,30.35,2,0,2,0.02
2013-10-4,66,52,46,58,48,43,93,86,71,30.65,30.41,1,0,1,0.00
2013-10-5,66,48,47,56,47,44,92,84,63,30.53,30.31,0,0,0,0.00
2013-10-6,80,60,45,61,49,43,94,70,39,30.30,29.97,11,1,11,0.02
2013-10-7,71,57,49,58,51,45,86,80,64,30.16,30.00,4,0,6,0.02
2013-10-8,63,52,45,56,47,41,93,84,73,30.24,30.01,3,0,3,0.08
2013-10-9,67,50,42,56,45,39,92,84,66,30.31,30.10,0,0,0,0.00
2013-10-10,55,52,47,51,48,44,90,86,83,30.25,30.01,0,0,0,0.00
2013-10-11,55,54,50,51,50,47,90,86,85,30.28,30.01,0,0,0,0.00
2013-10-12,55,54,50,51,50,47,90,86,85,30.25,30.01,0,0,0,0.08
2013-10-13,55,53,46,51,49,43,91,86,85,30.44,30.01,0,0,0,0.00
2013-10-14,55,51,44,51,46,41,90,85,74,30.56,30.01,0,0,0,0.00
2013-10-15,62,50,44,53,46,41,92,86,73,30.56,30.01,0,0,0,0.00
2013-10-16,66,54,47,58,49,44,93,85,71,30.37,30.01,0,0,0,0.00
2013-10-17,66,52,46,57,48,43,91,86,70,30.44,30.01,0,0,0,0.00
2013-10-18,65,51,46,57,47,43,93,86,71,30.42,30.01,0,0,0,0.00
2013-10-19,55,49,45,51,46,42,93,90,85,30.38,30.01,0,0,0,0.00
2013-10-20,55,50,48,51,47,45,93,90,85,30.38,30.01,0,0,0,0.00
2013-10-21,55,50,48,51,48,46,93,91,85,30.35,30.01,0,0,0,0.00
2013-10-22,60,51,48,56,48,46,94,89,80,30.30,30.01,0,-4,0,0.00
2013-10-23,63,54,47,56,49,44,94,86,74,30.22,30.10,0,0,0,0.00
2013-10-24,56,49,45,50,46,43,93,91,83,30.29,30.20,0,0,0,0.00
2013-10-25,56,51,48,53,48,46,94,91,83,30.49,30.20,0,0,0,0.02
2013-10-26,62,53,50,56,49,47,93,88,78,30.50,30.20,0,0,0,0.00
2013-10-27,56,54,49,50,48,44,91,83,66,30.42,30.06,5,0,5,0.04
2013-10-28,67,55,47,50,39,32,83,57,43,30.20,30.01,7,0,7,0.00
2013-10-29,68,47,39,52,39,32,87,75,54,30.20,30.10,0,0,0,0.00
2013-10-30,54,47,40,48,43,36,89,84,76,30.28,30.19,11,1,11,0.00
2013-10-31,57,52,50,52,48,44,88,85,79,30.42,30.21,12,1,12,0.00
2013-11-1,65,54,48,57,50,45,91,86,73,30.43,29.97,0,0,0,0.00
2013-11-2,56,50,42,50,46,-100,93,87,1,30.20,29.56,22,1,22,0.28
2013-11-3,62,45,38,54,42,35,95,87,71,30.28,30.04,2,0,2,0.00
2013-11-4,56,47,38,50,43,36,93,85,78,30.36,30.20,5,0,5,0.00
2013-11-5,53,47,45,51,44,40,93,89,84,30.43,30.16,5,0,5,0.02
2013-11-6,54,48,45,52,46,43,94,91,88,30.49,30.18,3,0,3,0.06
2013-11-7,56,49,46,51,47,44,95,93,83,30.20,29.83,17,1,17,0.71
2013-11-8,62,49,43,56,46,-100,95,90,80,30.32,30.11,2,0,2,0.02
2013-11-9,56,47,42,50,44,40,94,92,83,30.32,30.20,0,0,0,0.04
2013-11-10,56,49,45,50,46,43,94,91,83,30.32,30.20,1,0,1,0.06
2013-11-11,60,49,44,55,46,41,93,89,80,30.33,30.17,2,0,2,0.00
2013-11-12,59,52,47,56,50,44,95,91,86,30.51,30.17,13,2,13,0.18
2013-11-13,59,52,49,56,49,46,93,91,85,30.60,30.48,7,1,7,0.00
2013-11-14,56,49,44,50,47,42,94,91,83,30.48,30.20,5,0,5,0.06
2013-11-15,49,46,44,47,44,42,94,92,89,30.23,29.48,12,2,12,0.00
2013-11-16,51,43,37,48,40,36,95,90,84,29.93,29.49,6,0,6,0.00
2013-11-17,58,47,42,52,44,38,92,87,75,30.05,29.91,10,2,10,0.00
2013-11-18,51,49,47,50,46,44,95,92,90,30.05,29.67,11,0,11,0.77
2013-11-19,51,44,37,50,42,33,95,93,86,30.25,29.68,6,0,6,0.18
2013-11-20,50,38,34,42,34,30,89,83,71,30.67,30.25,4,0,4,0.00
2013-11-21,51,38,32,42,33,29,91,82,65,30.83,30.68,2,0,2,0.00
2013-11-22,51,40,34,49,35,30,94,83,71,30.83,29.73,3,0,3,0.00
2013-11-23,56,43,36,49,38,33,94,85,69,30.64,29.73,0,0,0,0.00
2013-11-24,38,38,38,35,35,35,89,89,88,30.39,30.38,0,0,0,0.00
2013-11-25,41,40,39,38,38,36,91,90,90,30.34,30.31,0,0,0,0.00
2013-11-26,44,42,41,41,40,38,90,90,89,30.31,30.28,0,0,0,0.00
2013-11-27,59,45,40,51,41,37,93,88,73,30.28,30.11,0,0,0,0.00
2013-11-28,53,42,39,50,40,36,94,90,79,30.34,30.13,0,0,0,0.00
2013-11-29,48,45,39,45,42,37,95,92,79,30.47,30.13,0,0,0,0.00
2013-11-30,51,49,46,48,46,44,93,91,88,30.47,30.20,8,1,8,0.00
2013-12-3,45,43,42,41,40,38,88,88,87,30.38,30.32,5,4,6,0.00
2013-12-4,42,41,40,38,37,36,87,86,86,30.44,30.38,4,4,5,0.00
2013-12-5,39,38,37,36,34,32,86,85,84,30.51,30.45,3,3,4,0.00
2013-12-6,37,36,34,32,31,30,84,83,83,30.57,30.51,3,2,3,0.00
2013-12-7,34,33,32,30,28,27,83,82,81,30.63,30.57,2,2,2,0.00
2013-12-8,32,30,29,27,25,24,81,81,80,30.69,30.63,1,1,2,0.00
2013-12-9,34,31,27,26,24,21,80,77,72,30.75,30.65,1,0,1,0.00
2013-12-10,40,35,30,35,30,25,88,84,80,30.70,30.58,3,0,3,0.00
2013-12-11,40,35,33,37,33,30,92,90,87,30.60,30.34,2,0,2,0.00
2013-12-12,46,40,32,41,36,30,93,88,75,30.34,30.17,16,2,16,0.00
2013-12-13,43,43,43,40,40,40,91,91,90,30.24,30.22,6,4,8,0.00
2013-12-14,47,46,45,45,43,43,93,92,92,30.60,30.55,2,0,2,0.00
2013-12-15,46,46,46,44,44,43,92,92,92,30.63,30.60,0,0,0,0.00
2013-12-16,56,45,41,52,43,38,94,91,82,30.66,30.44,0,0,0,0.00
2013-12-17,46,42,40,42,40,38,93,92,86,30.53,30.27,6,0,6,0.00
2013-12-18,46,41,36,44,39,34,94,91,88,30.33,30.18,7,0,7,0.02
2013-12-19,44,38,35,35,31,28,91,76,69,30.52,30.33,8,0,8,0.00
2013-12-20,41,38,34,39,34,29,91,87,78,30.37,29.86,11,1,11,0.08
2013-12-21,44,42,41,42,40,39,93,92,91,30.33,30.00,0,0,0,0.08
2013-12-22,49,45,43,48,44,41,95,94,93,30.44,30.31,11,-3,11,0.04
2013-12-23,59,50,39,54,47,36,94,88,78,30.68,30.27,14,3,14,0.00
2013-12-24,50,41,36,46,38,33,93,89,80,30.78,30.65,0,0,0,0.00
2013-12-25,50,40,35,46,37,33,94,90,83,30.72,30.57,1,0,1,0.00
2013-12-26,50,40,36,45,38,34,94,90,82,30.65,30.37,1,0,1,0.00
2013-12-27,45,41,36,43,39,34,94,93,90,30.65,30.26,1,0,1,0.00
2013-12-28,50,43,38,47,40,36,95,92,87,30.70,30.54,0,0,0,0.00
2013-12-29,45,42,38,43,40,36,94,92,90,30.66,30.48,1,0,1,0.00
2013-12-30,45,42,41,43,40,39,94,93,91,30.49,30.28,2,0,2,0.00
2013-12-31,46,43,38,45,41,36,95,94,93,30.53,30.35,1,0,1,0.00
2014-1-1,47,44,41,45,42,39,95,94,93,30.60,30.43,0,0,0,0.00
2014-1-2,51,45,42,46,43,41,95,93,82,30.53,30.11,9,1,9,0.02